134  
ASUS42 KCAE 251410  
RWRCAE  
REGIONAL WEATHER ROUNDUP  
NATIONAL WEATHER SERVICE COLUMBIA SC  
1000 AM EDT MON OCT 25 2021  
 
NOTE: "FAIR" INDICATES FEW OR NO CLOUDS BELOW 12,000 FEET WITH NO  
SIGNIFICANT WEATHER AND/OR S TO VISIBILITY
.  
 
NOT ALL STATIONS ARE QUALITY CONTROLLED BY THE NATIONAL  
WEATHER SERVICE. USE DATA WITH CAUTION...ESPECIALLY  
DEWPOINT OBSERVATIONS.  
 
SCZ001>059-115-116-135>137-GAZ040-063>065-077-251500-   
..UPSTATE SOUTH CAROLINA
 
 
 
CITY SKY/WX TMP DP RH WIND PRES REMARKS
 
ANDERSON MOSUNNY 67 59 75 CALM 29.98F  
LIBERTY SUNNY 65 58 79 CALM 29.97F  
SPARTANBURG SUNNY 63 55 77 CALM 30.00S  
CLEMSON PTSUNNY 63 58 83 CALM 29.99F  
GREENVILLE SUNNY 68 57 68 S3 29.99F  
GREENWOOD CLOUDY 65 61 87 CALM 30.00F  
GREER SUNNY 67 56 67 CALM 29.98F  
ROCK HILL CLOUDY 65 62 90 SW6 30.01S  
CHESTER CLOUDY 63 63 100 CALM 30.00F FOG  
LAURENS CLOUDY 66 61 82 CALM 29.99F  
 
   
..CENTRAL SOUTH CAROLINA
 
 
 
CITY SKY/WX TMP DP RH WIND PRES REMARKS
 
COLUMBIA APT CLOUDY 68 63 84 CALM 29.98R  
COLUMBIA OWENS MOSUNNY 68 64 87 CALM 30.00R  
MCENTIRE ANGB PTSUNNY 71 69 94 CALM 29.98R  
ORANGEBURG MOSUNNY 70 66 87 S8 29.99R  
SUMTER SHAW CLOUDY 69 64 84 CALM 29.98S  
NEWBERRY LGT RAIN 63 61 94 CALM 30.02F  
AIKEN CLOUDY 67 66 96 SE5 30.00R  
BARNWELL CLOUDY 70 66 88 S5 29.99R  
MANNING PTSUNNY 68 64 88 S5 29.98F  
CAMDEN PTSUNNY 72 64 78 CALM 30.00R  
LANCASTER CLOUDY 66 64 94 CALM 30.00S  
WINNSBORO MOSUNNY 66 64 94 CALM 29.98F  
 
   
..EASTERN AND COASTAL SOUTH CAROLINA
 
 
 
CITY SKY/WX TMP DP RH WIND PRES REMARKS
 
MYRTLE BEACH LGT RAIN 69 67 93 E5 30.01S  
N MYRTLE BCH CLOUDY 69 67 93 E6 30.00S  
CONWAY LGT RAIN 68 66 94 CALM 30.00F  
MARION CLOUDY 70 68 94 SE6 29.99F  
HARTSVILLE PTSUNNY 70 66 88 CALM 29.99S  
FLORENCE MOSUNNY 73 66 78 SW6 29.99R  
DARLINGTON MOSUNNY 67 64 90 CALM 29.99F  
CHARLESTON APT LGT RAIN 68 67 96 E5 29.98F  
MOUNT PLEASANT FAIR 68 68 100 CALM 29.95F FOG  
WALTERBORO MOSUNNY 68 66 94 SE6 29.99R  
BEAUFORT PTSUNNY 72 70 93 CALM 29.98S  
HILTON HEAD PTSUNNY 70 68 94 CALM 29.99R  
 
   
..EASTERN GEORGIA
 
 
 
CITY SKY/WX TMP DP RH WIND PRES REMARKS
 
AUGUSTA BUSH F CLOUDY 69 65 86 SE3 29.97F  
AUGUSTA DANIEL CLOUDY 70 66 87 SE3 29.99S  
THOMSON CLOUDY 66 65 95 CALM 29.99S  
WASHINGTON CLOUDY 65 62 89 CALM 29.99F  
CLAXTON CLOUDY 73 70 90 S3 29.98R  
SYLVANIA CLOUDY 71 69 95 CALM 29.99R  
STATESBORO CLOUDY 70 68 92 S3 29.98R  
SAVANNAH PTSUNNY 70 69 97 SE6 29.98R  
 
   
..SOUTHERN NORTH CAROLINA
 
 
 
CITY SKY/WX TMP DP RH WIND PRES REMARKS
 
CHARLOTTE PTSUNNY 68 61 78 CALM 29.99F  
MONROE LGT RAIN 65 64 97 SE3 29.99R  
WADESBORO MOSUNNY 64 62 94 CALM 29.99S FOG  
ROCKINGHAM SUNNY 65 63 91 CALM 29.99F  
RUTHERFORDTON SUNNY 61 55 82 CALM 29.99F  
ASHEVILLE SUNNY 61 54 77 S7 29.99F  
 

 
 
 
CLICK HERE TO GO TO PREVIOUS BULLETINS.

The Nexlab SC Page
The Nexlab GA Page Main Text Page